[[{"header":{"parameterUnit":"m.s-1","parameterCategory":1,"la1":30.2991,"la2":30.254,"lo1":-89.0895,"lo2":-89.0444,"dy":0.0017,"dx":0.0017,"nx":28,"ny":28,"refTime":"2024-02-02T03:00:00:Z","depth":0,"parameterNumber":2,"parameterNumberName":"U-component_of_WINDS"},"data":[0,0,0,0,0,0,0,0,0,0,0,0,0,0,0,0,0,0,0,0,0,0,0,0,0,0,0,0,0,0,0,0,0,0,0,0,0,0,0,0,0,0,0,0,0,0,0,0,0,0,0,0,0,0,0,0,0,0,0.3695,0.3695,0,0.3729,0.373,0.373,0.3737,0.3737,0.3737,0.3737,0.377,0.3771,0.3772,0,0,0,0,0,0,0,0,0,0,0,0,0,0.3632,0.3633,0.3695,0.3695,0.3696,0.3729,0.373,0.373,0.3737,0.3737,0.3737,0.3737,0.377,0.3771,0.3772,0,0,0,0,0,0,0,0,0,0,0,0,0,0.3662,0.3634,0.3695,0.3703,0.3704,0.3729,0.373,0.373,0.3738,0.3737,0.3737,0.3736,0.3769,0.3771,0.3773,0.3791,0,0,0.3778,0.3778,0,0,0,0,0,0,0,0,0.3661,0.3665,0.3702,0.3703,0.3704,0.3729,0.372,0.3751,0.3738,0.3725,0.3737,0.3736,0.3756,0.3759,0.3766,0.3792,0.3794,0.3778,0.3779,0.378,0.378,0,0,0,0,0,0,0,0.3659,0.3663,0.3708,0.3702,0.3704,0.3705,0.3709,0.3726,0.3742,0.3726,0.3727,0.3731,0.3757,0.3765,0.3767,0.3794,0.3778,0.3779,0.378,0.3781,0.3836,0.3836,0,0,0,0,0,0,0.3655,0.3661,0.3707,0.3709,0.3681,0.3706,0.371,0.3721,0.3742,0.3745,0.3731,0.3731,0.3762,0.3765,0.3768,0.3791,0.378,0.3781,0.3782,0.3836,0.3836,0.3837,0,0,0,0,0,0,0.3654,0.3659,0.3706,0.3686,0.3692,0.3708,0.372,0.3722,0.373,0.3746,0.3749,0.3736,0.3762,0.3766,0.3785,0.3792,0.3782,0.3783,0.3835,0.3836,0.3836,0.3836,0,0,0,0,0,0,0.3652,0.3659,0.3666,0.3686,0.3693,0.3723,0.372,0.3723,0.3733,0.3733,0.3751,0.3754,0.3762,0.3783,0.3787,0.3794,0.3785,0.3834,0.3835,0.3836,0.3835,0.3836,0.3837,0,0,0,0,0,0.365,0.3664,0.3667,0.3672,0.3703,0.3723,0.3727,0.3736,0.3734,0.3741,0.3751,0.3754,0.3791,0.3784,0.3789,0.3797,0.3834,0.3835,0.3836,0.3835,0.3836,0.3837,0,0,0,0,0,0,0.3644,0.3667,0.367,0.3691,0.3705,0.3724,0.3734,0.3737,0.3752,0.3751,0.3762,0.3766,0.3784,0.3793,0.3785,0.3816,0.3812,0.3814,0.381,0.3811,0.3812,0.3809,0.3786,0,0,0,0,0,0.3646,0.3661,0.368,0.3697,0.3704,0.3718,0.3727,0.3733,0.3747,0.3753,0.3765,0.3778,0.3793,0.3803,0.3817,0.3837,0.384,0.3845,0.3846,0.3846,0.3848,0.3859,0.386,0.384,0.384,0.384,0,0,0.3649,0.3663,0.3672,0.3696,0.3708,0.3723,0.3722,0.3738,0.3749,0.3755,0.3774,0.3783,0.3799,0.3818,0.3827,0.3826,0.3854,0.3848,0.3848,0.3849,0.386,0.3862,0.3863,0.3841,0.3841,0.384,0,0,0.3661,0.3674,0.3689,0.3701,0.3719,0.3728,0.3732,0.375,0.3757,0.3776,0.3781,0.3794,0.3819,0.383,0.3839,0.3856,0.3859,0.386,0.3866,0.3876,0.3878,0.3879,0.3885,0.3887,0.3862,0.3862,0.3862,0,0.3662,0.3686,0.3697,0.3713,0.3723,0.373,0.3745,0.3756,0.3777,0.3784,0.3782,0.3814,0.3825,0.3847,0.3851,0.3858,0.3862,0.3858,0.3877,0.3878,0.388,0.3885,0.3887,0.3862,0.3862,0.3862,0.3862,0,0.3686,0.3702,0.3713,0.3734,0.3745,0.3761,0.3773,0.3784,0.3789,0.3798,0.3817,0.3831,0.3848,0.3854,0.3858,0.3876,0.3875,0.3875,0.3871,0.3882,0.3887,0.3889,0.3862,0.3862,0.3862,0.3862,0,0,0.3696,0.3724,0.3727,0.3737,0.3757,0.3769,0.3785,0.3803,0.3811,0.3826,0.3838,0.386,0.386,0.387,0.3876,0.3885,0.3898,0.3884,0.3885,0.3886,0.3917,0.3917,0.3919,0.39,0.39,0.39,0.3916,0,0.3711,0.374,0.375,0.3774,0.3789,0.3796,0.3809,0.3823,0.3831,0.3845,0.3854,0.3869,0.3869,0.3875,0.3884,0.3894,0.3904,0.3893,0.3911,0.3911,0.3906,0.3922,0.3922,0.3936,0.3918,0.3919,0.3919,0,0.3732,0.3748,0.3773,0.3792,0.3798,0.381,0.3827,0.384,0.3856,0.3861,0.3873,0.3878,0.3894,0.389,0.3912,0.3904,0.3912,0.3918,0.3919,0.392,0.3915,0.3924,0.3941,0.3943,0.3922,0.3922,0.3922,0,0.3737,0.3764,0.3783,0.3791,0.3813,0.3821,0.3831,0.3846,0.3856,0.387,0.3877,0.3892,0.3901,0.3913,0.3922,0.3919,0.3943,0.394,0.3948,0.3947,0.3952,0.3952,0.397,0.3958,0.3958,0.3958,0.3958,0,0.3752,0.3767,0.3785,0.3796,0.3813,0.3825,0.3841,0.385,0.3864,0.3877,0.3883,0.3895,0.3907,0.392,0.3928,0.3944,0.3948,0.3953,0.3954,0.3952,0.3951,0.3957,0.3956,0.3958,0.3958,0.3958,0.3958,0,0.376,0.3772,0.3793,0.3813,0.3818,0.3829,0.3846,0.3857,0.3866,0.3882,0.3886,0.3901,0.3917,0.3927,0.3947,0.3952,0.397,0.3972,0.3965,0.3966,0.3973,0.3972,0.3996,0.3999,0.3985,0.3985,0.3985,0,0.3769,0.378,0.3801,0.3811,0.3821,0.3836,0.3846,0.3858,0.3868,0.3887,0.3895,0.3912,0.3925,0.395,0.3962,0.3977,0.3979,0.3986,0.3981,0.3978,0.3979,0.3978,0.3979,0.3987,0.3987,0.3987,0.3987,0,0.3783,0.3789,0.3804,0.3821,0.3834,0.3848,0.3862,0.3869,0.3883,0.3894,0.3911,0.3921,0.3942,0.3958,0.3975,0.3984,0.3987,0.3989,0.3991,0.3989,0.3984,0.3986,0.3967,0.3988,0.3988,0.3988,0.3988,0.3988,0.3791,0.3802,0.3819,0.3835,0.3847,0.386,0.3872,0.3883,0.3897,0.3915,0.3921,0.3938,0.3953,0.3976,0.3985,0.3998,0.3997,0.4001,0.4002,0.4002,0.4002,0.3982,0.4001,0.4001,0.4001,0.4001,0.4001,0,0.3806,0.3817,0.3832,0.3852,0.3865,0.3868,0.3884,0.3894,0.391,0.3923,0.3937,0.3956,0.3972,0.3985,0.4001,0.4009,0.4011,0.4012,0.4012,0.4014,0.4002,0.3998,0.401,0.401,0.401,0.401,0.401,0.401,0.3815,0.3833,0.3841,0.3865,0.3876,0.3894,0.3902,0.3914,0.3925,0.3946,0.396,0.3968,0.3982,0.3999,0.4013,0.4016,0.4022,0.4023,0.4026,0.4015,0.4014,0.4013,0.401,0.4024,0.4024,0.4037,0.4037,0.4037]},{"header":{"parameterUnit":"m.s-1","parameterCategory":1,"la1":30.2991,"la2":30.254,"lo1":-89.0895,"lo2":-89.0444,"dy":0.0017,"dx":0.0017,"nx":28,"ny":28,"refTime":"2024-02-02T03:00:00:Z","depth":0,"parameterNumber":3,"parameterNumberName":"V-component_of_WINDS"},"data":[0,0,0,0,0,0,0,0,0,0,0,0,0,0,0,0,0,0,0,0,0,0,0,0,0,0,0,0,0,0,0,0,0,0,0,0,0,0,0,0,0,0,0,0,0,0,0,0,0,0,0,0,0,0,0,0,0,0,-0.9082,-0.9083,0,-0.9141,-0.9141,-0.9142,-0.9154,-0.9154,-0.9153,-0.9153,-0.9211,-0.9213,-0.9215,0,0,0,0,0,0,0,0,0,0,0,0,0,-0.8982,-0.8984,-0.9082,-0.9083,-0.9084,-0.914,-0.9141,-0.9142,-0.9154,-0.9154,-0.9153,-0.9153,-0.921,-0.9213,-0.9215,0,0,0,0,0,0,0,0,0,0,0,0,0,-0.9031,-0.8984,-0.9082,-0.9097,-0.9099,-0.914,-0.9141,-0.9142,-0.9154,-0.9154,-0.9153,-0.9152,-0.921,-0.9212,-0.9215,-0.9246,0,0,-0.9224,-0.9226,0,0,0,0,0,0,0,0,-0.9028,-0.9035,-0.9094,-0.9096,-0.9098,-0.9139,-0.9127,-0.9177,-0.9154,-0.9133,-0.9153,-0.9152,-0.9188,-0.9192,-0.9205,-0.9249,-0.9251,-0.9224,-0.9226,-0.9228,-0.9228,0,0,0,0,0,0,0,-0.9025,-0.9032,-0.9105,-0.9095,-0.9097,-0.91,-0.9107,-0.9137,-0.9163,-0.9135,-0.9136,-0.9143,-0.9189,-0.9202,-0.9206,-0.9252,-0.9224,-0.9227,-0.9229,-0.923,-0.9326,-0.9327,0,0,0,0,0,0,-0.9019,-0.903,-0.9104,-0.9107,-0.9061,-0.9103,-0.911,-0.9127,-0.9163,-0.9168,-0.9143,-0.9143,-0.9197,-0.9203,-0.9208,-0.9247,-0.9227,-0.923,-0.9232,-0.9325,-0.9326,-0.9327,0,0,0,0,0,0,-0.9017,-0.9026,-0.9101,-0.9069,-0.9079,-0.9105,-0.9124,-0.9128,-0.9141,-0.9169,-0.9174,-0.9152,-0.9197,-0.9204,-0.9237,-0.9249,-0.9232,-0.9234,-0.9324,-0.9325,-0.9326,-0.9325,0,0,0,0,0,0,-0.9014,-0.9025,-0.9037,-0.9069,-0.908,-0.9129,-0.9125,-0.913,-0.9147,-0.9147,-0.9179,-0.9183,-0.9197,-0.9233,-0.924,-0.9253,-0.9236,-0.9323,-0.9325,-0.9326,-0.9324,-0.9326,-0.9328,0,0,0,0,0,-0.901,-0.9033,-0.9037,-0.9046,-0.9096,-0.913,-0.9136,-0.9152,-0.9147,-0.916,-0.9178,-0.9182,-0.9247,-0.9236,-0.9244,-0.9259,-0.9322,-0.9324,-0.9326,-0.9324,-0.9326,-0.9328,0,0,0,0,0,0,-0.9001,-0.9038,-0.9042,-0.9077,-0.91,-0.9132,-0.9148,-0.9154,-0.9179,-0.9178,-0.9196,-0.9203,-0.9235,-0.925,-0.9237,-0.9291,-0.9284,-0.9288,-0.928,-0.9282,-0.9284,-0.928,-0.9239,0,0,0,0,0,-0.9003,-0.9028,-0.9059,-0.9086,-0.9098,-0.9121,-0.9136,-0.9146,-0.9171,-0.9181,-0.9201,-0.9225,-0.9251,-0.9267,-0.9293,-0.9327,-0.9334,-0.9341,-0.9343,-0.9344,-0.9347,-0.9367,-0.9371,-0.9333,-0.9333,-0.9333,0,0,-0.9008,-0.9031,-0.9045,-0.9085,-0.9104,-0.913,-0.9129,-0.9155,-0.9175,-0.9185,-0.9218,-0.9234,-0.9261,-0.9295,-0.9311,-0.9309,-0.9359,-0.9346,-0.9347,-0.9349,-0.9369,-0.9373,-0.9376,-0.9334,-0.9334,-0.9334,0,0,-0.9029,-0.9049,-0.9074,-0.9094,-0.9124,-0.9139,-0.9145,-0.9176,-0.9187,-0.9221,-0.9229,-0.9252,-0.9296,-0.9316,-0.9331,-0.9361,-0.9366,-0.9369,-0.9379,-0.9398,-0.9401,-0.9404,-0.9415,-0.9419,-0.9372,-0.9372,-0.9372,0,-0.903,-0.9069,-0.9086,-0.9113,-0.913,-0.9142,-0.9168,-0.9186,-0.9222,-0.9234,-0.9231,-0.9287,-0.9307,-0.9346,-0.9353,-0.9365,-0.9373,-0.9365,-0.9399,-0.9402,-0.9405,-0.9416,-0.942,-0.9372,-0.9372,-0.9372,-0.9372,0,-0.907,-0.9097,-0.9114,-0.9149,-0.9169,-0.9195,-0.9216,-0.9234,-0.9243,-0.9258,-0.9293,-0.9316,-0.9347,-0.9357,-0.9366,-0.9398,-0.9396,-0.9396,-0.939,-0.9409,-0.9419,-0.9423,-0.9372,-0.9372,-0.9372,-0.9372,0,0,-0.9086,-0.9132,-0.9138,-0.9155,-0.9189,-0.921,-0.9237,-0.9268,-0.9283,-0.9307,-0.9331,-0.9368,-0.9369,-0.9387,-0.9398,-0.9415,-0.9438,-0.9413,-0.9414,-0.9417,-0.9476,-0.9476,-0.948,-0.9442,-0.9443,-0.9443,-0.9474,0,-0.9112,-0.9161,-0.9177,-0.9218,-0.9243,-0.9255,-0.9279,-0.9302,-0.9318,-0.9342,-0.9359,-0.9386,-0.9384,-0.9395,-0.9413,-0.9432,-0.945,-0.943,-0.9464,-0.9465,-0.9457,-0.9486,-0.9486,-0.9513,-0.9478,-0.9479,-0.9479,0,-0.9148,-0.9174,-0.9217,-0.9249,-0.9261,-0.9282,-0.9312,-0.9334,-0.9362,-0.9372,-0.9393,-0.9403,-0.9432,-0.9424,-0.9465,-0.945,-0.9465,-0.9477,-0.9478,-0.9482,-0.9473,-0.9491,-0.9522,-0.9527,-0.9486,-0.9485,-0.9485,0,-0.9156,-0.9202,-0.9234,-0.9248,-0.9286,-0.9301,-0.9317,-0.9344,-0.9362,-0.9388,-0.94,-0.9429,-0.9445,-0.9467,-0.9485,-0.9478,-0.9524,-0.9518,-0.9534,-0.9534,-0.9543,-0.9542,-0.9578,-0.9552,-0.9552,-0.9552,-0.9552,0,-0.9182,-0.9208,-0.9238,-0.9258,-0.9288,-0.9307,-0.9336,-0.9353,-0.9377,-0.9401,-0.9413,-0.9434,-0.9457,-0.9481,-0.9495,-0.9527,-0.9534,-0.9543,-0.9547,-0.9543,-0.9541,-0.9553,-0.9551,-0.9553,-0.9553,-0.9553,-0.9553,0,-0.9196,-0.9217,-0.9253,-0.9287,-0.9296,-0.9316,-0.9345,-0.9365,-0.9382,-0.9411,-0.9419,-0.9446,-0.9476,-0.9496,-0.9534,-0.9543,-0.9578,-0.9581,-0.9569,-0.9571,-0.9585,-0.9584,-0.963,-0.9637,-0.9606,-0.9606,-0.9607,0,-0.9212,-0.9232,-0.9269,-0.9285,-0.9302,-0.9329,-0.9348,-0.9368,-0.9387,-0.942,-0.9436,-0.9467,-0.9493,-0.954,-0.9562,-0.9592,-0.9596,-0.961,-0.96,-0.9595,-0.9596,-0.9595,-0.9598,-0.9611,-0.9611,-0.9611,-0.9612,0,-0.9237,-0.9247,-0.9274,-0.9305,-0.9327,-0.9352,-0.9376,-0.939,-0.9414,-0.9435,-0.9466,-0.9486,-0.9526,-0.9556,-0.9588,-0.9605,-0.9613,-0.9615,-0.962,-0.9616,-0.9608,-0.9613,-0.9573,-0.9613,-0.9613,-0.9613,-0.9613,-0.9613,-0.9253,-0.9272,-0.9301,-0.9331,-0.9352,-0.9375,-0.9396,-0.9416,-0.9442,-0.9476,-0.9487,-0.9519,-0.9547,-0.9591,-0.9608,-0.9634,-0.9633,-0.964,-0.9642,-0.9644,-0.9644,-0.9604,-0.964,-0.964,-0.964,-0.964,-0.964,0,-0.928,-0.9299,-0.9326,-0.9362,-0.9385,-0.9391,-0.9419,-0.9438,-0.9467,-0.9493,-0.9518,-0.9555,-0.9585,-0.961,-0.9641,-0.9657,-0.9662,-0.9665,-0.9664,-0.9668,-0.9644,-0.9636,-0.9661,-0.9661,-0.9661,-0.9661,-0.9661,-0.9661,-0.9296,-0.933,-0.9343,-0.9387,-0.9407,-0.9439,-0.9455,-0.9477,-0.9497,-0.9538,-0.9563,-0.958,-0.9605,-0.9639,-0.9667,-0.9674,-0.9685,-0.9687,-0.9695,-0.9672,-0.9669,-0.9667,-0.966,-0.969,-0.969,-0.9717,-0.9717,-0.9718]}]]